CEB791 RPLL-RPME

Flight info

Callsign CEB791
Flight time 1h 10m
Altitude 35000
Route HARBO1 HARBO DCT IPATA B462 TAC W9 BANWA DCT ROLEX TACL2B
Aircraft A321/M-SDE3FGHIRWY/LB1

Departure

Time 2026-05-04 03:16
Airport Ninoy Aquino International Airport (RPLL)

Arrival

Time 2026-05-04 04:26
Airport Bancasi Airport (RPME)
Time Latitude Longitude Altitude Speed Heading
2026-05-04 03:04 14.52364 121.00779 69 ft 0 kts 46°
2026-05-04 03:07 14.52353 121.00767 76 ft 4 kts 46°
2026-05-04 03:07 14.52335 121.00748 54 ft 4 kts 48°
2026-05-04 03:07 14.52319 121.00728 62 ft 3 kts 58°
2026-05-04 03:08 14.52313 121.00717 63 ft 2 kts 90°
2026-05-04 03:08 14.52315 121.00706 69 ft 2 kts 128°
2026-05-04 03:08 14.52322 121.00697 62 ft 2 kts 134°
2026-05-04 03:08 14.52326 121.00692 61 ft 0 kts 134°
2026-05-04 03:12 14.52323 121.00696 61 ft 4 kts 134°
2026-05-04 03:12 14.52330 121.00704 61 ft 2 kts 332°
2026-05-04 03:13 14.52352 121.00666 66 ft 14 kts 307°
2026-05-04 03:13 14.52436 121.00581 67 ft 17 kts 314°
2026-05-04 03:13 14.52488 121.00505 67 ft 11 kts 267°
2026-05-04 03:13 14.52450 121.00454 66 ft 7 kts 226°
2026-05-04 03:14 14.52444 121.00447 65 ft 0 kts 226°
2026-05-04 03:14 14.52441 121.00445 64 ft 2 kts 226°
2026-05-04 03:14 14.52421 121.00423 67 ft 6 kts 226°
2026-05-04 03:14 14.52386 121.00391 65 ft 7 kts 203°
2026-05-04 03:15 14.52354 121.00409 65 ft 0 kts 132°
2026-05-04 03:15 14.52227 121.00543 61 ft 62 kts 135°
2026-05-04 03:15 14.51768 121.01017 64 ft 122 kts 135°
2026-05-04 03:16 14.51053 121.01753 120 ft 162 kts 134°
2026-05-04 03:16 14.50318 121.02505 722 ft 159 kts 135°
2026-05-04 03:16 14.49531 121.03306 1378 ft 158 kts 133°
2026-05-04 03:16 14.48763 121.04102 1949 ft 161 kts 133°
2026-05-04 03:17 14.47931 121.04970 2211 ft 180 kts 133°
2026-05-04 03:17 14.47005 121.05937 2386 ft 199 kts 132°
2026-05-04 03:17 14.45994 121.06988 2491 ft 213 kts 133°
2026-05-04 03:17 14.44898 121.08124 2614 ft 234 kts 133°
2026-05-04 03:18 14.43750 121.09357 2969 ft 241 kts 127°
2026-05-04 03:18 14.43006 121.10954 3276 ft 254 kts 101°
2026-05-04 03:18 14.42689 121.12766 3899 ft 257 kts 99°
2026-05-04 03:18 14.42365 121.14593 4573 ft 260 kts 99°
2026-05-04 03:19 14.42031 121.16436 5239 ft 262 kts 99°
2026-05-04 03:19 14.41698 121.18272 5897 ft 265 kts 99°
2026-05-04 03:19 14.41358 121.20145 6565 ft 267 kts 99°
2026-05-04 03:19 14.41000 121.22040 7120 ft 272 kts 103°
2026-05-04 03:20 14.40295 121.23858 7703 ft 277 kts 118°
2026-05-04 03:20 14.39150 121.25479 8269 ft 282 kts 126°
2026-05-04 03:20 14.37917 121.27066 8834 ft 285 kts 126°
2026-05-04 03:20 14.36673 121.28672 9371 ft 289 kts 126°
2026-05-04 03:21 14.35418 121.30299 9906 ft 292 kts 126°
2026-05-04 03:21 14.34144 121.31955 10238 ft 302 kts 126°
2026-05-04 03:21 14.32801 121.33706 10360 ft 320 kts 126°
2026-05-04 03:21 14.31381 121.35556 10479 ft 336 kts 127°
2026-05-04 03:22 14.29895 121.37489 10667 ft 349 kts 126°
2026-05-04 03:22 14.28371 121.39463 11077 ft 354 kts 127°
2026-05-04 03:22 14.26853 121.41426 11574 ft 356 kts 127°
2026-05-04 03:22 14.25305 121.43427 12111 ft 358 kts 127°
2026-05-04 03:23 14.23748 121.45443 12650 ft 360 kts 127°
2026-05-04 03:23 14.22182 121.47476 13183 ft 363 kts 126°
2026-05-04 03:23 14.20611 121.49518 13716 ft 365 kts 126°
2026-05-04 03:23 14.19028 121.51574 14187 ft 367 kts 126°
2026-05-04 03:24 14.17430 121.53645 14657 ft 369 kts 127°
2026-05-04 03:24 14.15824 121.55725 15108 ft 371 kts 127°
2026-05-04 03:24 14.14210 121.57815 15541 ft 374 kts 127°
2026-05-04 03:24 14.12584 121.59919 15974 ft 377 kts 127°
2026-05-04 03:25 14.10943 121.62041 16393 ft 379 kts 127°
2026-05-04 03:25 14.09152 121.64051 16795 ft 384 kts 136°
2026-05-04 03:25 14.07066 121.65736 17191 ft 388 kts 142°
2026-05-04 03:25 14.04887 121.67392 17611 ft 390 kts 142°
2026-05-04 03:26 14.02695 121.69060 18022 ft 393 kts 142°
2026-05-04 03:26 14.00490 121.70740 18383 ft 396 kts 142°
2026-05-04 03:26 13.98270 121.72434 18729 ft 398 kts 142°
2026-05-04 03:26 13.96037 121.74138 19053 ft 400 kts 142°
2026-05-04 03:27 13.93795 121.75846 19376 ft 402 kts 142°
2026-05-04 03:27 13.91538 121.77566 19695 ft 404 kts 142°
2026-05-04 03:27 13.89271 121.79290 20017 ft 406 kts 142°
2026-05-04 03:27 13.87027 121.81071 20327 ft 408 kts 137°
2026-05-04 03:28 13.85066 121.83189 20618 ft 410 kts 129°
2026-05-04 03:28 13.83243 121.85448 20912 ft 412 kts 129°
2026-05-04 03:28 13.81399 121.87715 21202 ft 414 kts 129°
2026-05-04 03:28 13.79542 121.89991 21504 ft 416 kts 130°
2026-05-04 03:29 13.77700 121.92245 21795 ft 418 kts 130°
2026-05-04 03:29 13.75821 121.94542 22093 ft 420 kts 130°
2026-05-04 03:29 13.73936 121.96852 22376 ft 422 kts 130°
2026-05-04 03:29 13.72042 121.99175 22659 ft 424 kts 130°
2026-05-04 03:30 13.70138 122.01505 22942 ft 426 kts 130°
2026-05-04 03:30 13.68219 122.03848 23226 ft 428 kts 130°
2026-05-04 03:30 13.66301 122.06196 23503 ft 430 kts 130°
2026-05-04 03:30 13.64370 122.08558 23734 ft 432 kts 130°
2026-05-04 03:31 13.62426 122.10928 23972 ft 434 kts 130°
2026-05-04 03:31 13.60479 122.13306 24205 ft 436 kts 130°
2026-05-04 03:31 13.58528 122.15693 24428 ft 437 kts 130°
2026-05-04 03:31 13.56566 122.18093 24657 ft 439 kts 130°
2026-05-04 03:32 13.54597 122.20499 24887 ft 440 kts 130°
2026-05-04 03:32 13.52619 122.22915 25109 ft 442 kts 130°
2026-05-04 03:32 13.50637 122.25335 25335 ft 444 kts 130°
2026-05-04 03:32 13.48643 122.27771 25547 ft 445 kts 130°
2026-05-04 03:33 13.46669 122.30178 25760 ft 447 kts 130°
2026-05-04 03:33 13.44662 122.32623 25987 ft 448 kts 130°
2026-05-04 03:33 13.42649 122.35076 26203 ft 450 kts 130°
2026-05-04 03:33 13.40629 122.37539 26420 ft 451 kts 130°
2026-05-04 03:34 13.38600 122.40015 26644 ft 453 kts 130°
2026-05-04 03:34 13.36568 122.42490 26851 ft 454 kts 130°
2026-05-04 03:34 13.34528 122.44976 27060 ft 456 kts 130°
2026-05-04 03:34 13.32476 122.47476 27262 ft 457 kts 130°
2026-05-04 03:35 13.30419 122.49981 27467 ft 459 kts 130°
2026-05-04 03:35 13.28358 122.52489 27669 ft 460 kts 130°
2026-05-04 03:35 13.26283 122.55009 27860 ft 462 kts 130°
2026-05-04 03:35 13.24232 122.57500 28046 ft 463 kts 130°
2026-05-04 03:36 13.22149 122.60030 28236 ft 464 kts 130°
2026-05-04 03:36 13.20060 122.62567 28417 ft 466 kts 130°
2026-05-04 03:36 13.17967 122.65109 28597 ft 468 kts 130°
2026-05-04 03:36 13.15863 122.67666 28777 ft 469 kts 130°
2026-05-04 03:37 13.14466 122.69367 28893 ft 470 kts 130°
2026-05-04 03:37 13.11641 122.72799 29132 ft 472 kts 130°
2026-05-04 03:37 13.09515 122.75378 29302 ft 474 kts 130°
2026-05-04 03:37 13.07385 122.77961 29485 ft 475 kts 130°
2026-05-04 03:38 13.05248 122.80551 29709 ft 475 kts 130°
2026-05-04 03:38 13.03114 122.83136 29969 ft 474 kts 130°
2026-05-04 03:38 13.00981 122.85719 30180 ft 474 kts 130°
2026-05-04 03:38 12.98852 122.88299 30402 ft 474 kts 130°
2026-05-04 03:39 12.96727 122.90880 30631 ft 473 kts 130°
2026-05-04 03:39 12.94635 122.93420 30868 ft 472 kts 130°
2026-05-04 03:39 12.92489 122.96022 31101 ft 472 kts 130°
2026-05-04 03:39 12.90373 122.98587 31335 ft 471 kts 130°
2026-05-04 03:40 12.88257 123.01145 31574 ft 470 kts 130°
2026-05-04 03:40 12.86142 123.03699 31827 ft 469 kts 130°
2026-05-04 03:40 12.84031 123.06249 32078 ft 468 kts 130°
2026-05-04 03:40 12.81950 123.08759 32331 ft 468 kts 131°
2026-05-04 03:41 12.79846 123.11298 32581 ft 467 kts 131°
2026-05-04 03:41 12.77753 123.13831 32826 ft 466 kts 130°
2026-05-04 03:41 12.75659 123.16368 33075 ft 465 kts 131°
2026-05-04 03:41 12.73567 123.18896 33320 ft 465 kts 131°
2026-05-04 03:42 12.71468 123.21429 33562 ft 464 kts 131°
2026-05-04 03:42 12.69382 123.23946 33801 ft 464 kts 131°
2026-05-04 03:42 12.67294 123.26462 34037 ft 463 kts 131°
2026-05-04 03:42 12.65212 123.28974 34246 ft 463 kts 131°
2026-05-04 03:43 12.63129 123.31485 34448 ft 462 kts 131°
2026-05-04 03:43 12.61050 123.33999 34655 ft 462 kts 131°
2026-05-04 03:43 12.58976 123.36503 34849 ft 461 kts 131°
2026-05-04 03:44 12.54829 123.41500 34949 ft 459 kts 131°
2026-05-04 03:44 12.50732 123.46442 34948 ft 457 kts 131°
2026-05-04 03:45 12.46612 123.51397 34948 ft 457 kts 131°
2026-05-04 03:45 12.42475 123.56355 34950 ft 456 kts 131°
2026-05-04 03:46 12.38366 123.61301 34950 ft 456 kts 131°
2026-05-04 03:46 12.34298 123.66232 34954 ft 456 kts 131°
2026-05-04 03:47 12.30257 123.71247 34954 ft 456 kts 130°
2026-05-04 03:47 12.26222 123.76270 34955 ft 456 kts 130°
2026-05-04 03:48 12.22170 123.81280 34959 ft 457 kts 130°
2026-05-04 03:48 12.18131 123.86247 34959 ft 457 kts 130°
2026-05-04 03:49 12.14069 123.91246 34963 ft 457 kts 130°
2026-05-04 03:49 12.10013 123.96245 34960 ft 456 kts 130°
2026-05-04 03:50 12.05960 124.01238 34960 ft 456 kts 130°
2026-05-04 03:50 12.01904 124.06230 34959 ft 456 kts 130°
2026-05-04 03:51 11.97843 124.11217 34956 ft 456 kts 130°
2026-05-04 03:51 11.93812 124.16178 34958 ft 456 kts 130°
2026-05-04 03:52 11.89754 124.21174 34962 ft 457 kts 130°
2026-05-04 03:52 11.85686 124.26159 34965 ft 456 kts 130°
2026-05-04 03:53 11.82308 124.30301 34964 ft 456 kts 130°
2026-05-04 03:53 11.78252 124.35280 34966 ft 456 kts 130°
2026-05-04 03:54 11.73545 124.41064 34958 ft 455 kts 131°
2026-05-04 03:54 11.70155 124.45215 34959 ft 455 kts 130°
2026-05-04 03:55 11.65437 124.51001 34950 ft 455 kts 130°
2026-05-04 03:55 11.62071 124.55127 34955 ft 455 kts 130°
2026-05-04 03:56 11.58012 124.60088 34955 ft 455 kts 130°
2026-05-04 03:56 11.53956 124.65045 34953 ft 455 kts 130°
2026-05-04 03:57 11.49901 124.70002 34956 ft 455 kts 130°
2026-05-04 03:57 11.45842 124.74962 34959 ft 455 kts 130°
2026-05-04 03:58 11.39760 124.82406 34962 ft 455 kts 130°
2026-05-04 03:58 11.35698 124.87361 34967 ft 455 kts 130°
2026-05-04 03:59 11.31659 124.92282 34969 ft 455 kts 130°
2026-05-04 03:59 11.27597 124.97229 34961 ft 455 kts 130°
2026-05-04 04:00 11.22927 125.01496 34964 ft 452 kts 149°
2026-05-04 04:00 11.20123 125.02934 34963 ft 450 kts 160°
2026-05-04 04:00 11.17126 125.03844 34964 ft 449 kts 169°
2026-05-04 04:01 11.10982 125.05073 34958 ft 450 kts 169°
2026-05-04 04:01 11.04882 125.06315 34958 ft 450 kts 168°
2026-05-04 04:02 10.98743 125.07571 34956 ft 450 kts 168°
2026-05-04 04:02 10.92589 125.08827 34957 ft 450 kts 168°
2026-05-04 04:03 10.86441 125.10079 34960 ft 451 kts 168°
2026-05-04 04:03 10.83358 125.10705 34858 ft 451 kts 168°
2026-05-04 04:03 10.80333 125.11535 34627 ft 450 kts 162°
2026-05-04 04:04 10.77345 125.12511 34399 ft 450 kts 162°
2026-05-04 04:04 10.74358 125.13482 34174 ft 451 kts 162°
2026-05-04 04:04 10.71359 125.14451 33943 ft 452 kts 162°
2026-05-04 04:04 10.68360 125.15418 33691 ft 453 kts 162°
2026-05-04 04:05 10.65398 125.16373 33230 ft 454 kts 161°
2026-05-04 04:05 10.62386 125.17348 32634 ft 453 kts 161°
2026-05-04 04:05 10.59391 125.18319 32079 ft 451 kts 161°
2026-05-04 04:05 10.56402 125.19286 31502 ft 449 kts 161°
2026-05-04 04:06 10.53428 125.20247 30947 ft 448 kts 161°
2026-05-04 04:06 10.50461 125.21205 30397 ft 447 kts 161°
2026-05-04 04:06 10.47496 125.22160 29804 ft 446 kts 161°
2026-05-04 04:06 10.44551 125.23110 29217 ft 443 kts 161°
2026-05-04 04:07 10.41624 125.24056 28685 ft 440 kts 161°
2026-05-04 04:07 10.38717 125.24995 28145 ft 437 kts 161°
2026-05-04 04:07 10.35834 125.25927 27615 ft 434 kts 161°
2026-05-04 04:07 10.32966 125.26855 27091 ft 431 kts 161°
2026-05-04 04:08 10.30122 125.27775 26582 ft 428 kts 161°
2026-05-04 04:08 10.27290 125.28691 26074 ft 425 kts 161°
2026-05-04 04:08 10.24480 125.29598 25586 ft 422 kts 161°
2026-05-04 04:08 10.21689 125.30494 25100 ft 419 kts 161°
2026-05-04 04:09 10.18917 125.31384 24632 ft 416 kts 161°
2026-05-04 04:09 10.16165 125.32268 24149 ft 414 kts 161°
2026-05-04 04:09 10.13428 125.33151 23681 ft 411 kts 161°
2026-05-04 04:09 10.10742 125.34019 23164 ft 409 kts 161°
2026-05-04 04:10 10.08048 125.34890 22699 ft 404 kts 161°
2026-05-04 04:10 10.05383 125.35752 22220 ft 399 kts 161°
2026-05-04 04:10 10.02747 125.36604 21762 ft 395 kts 161°
2026-05-04 04:10 10.00137 125.37445 21301 ft 392 kts 161°
2026-05-04 04:11 9.97552 125.38278 20831 ft 389 kts 161°
2026-05-04 04:11 9.94985 125.39108 20367 ft 386 kts 161°
2026-05-04 04:11 9.92430 125.39935 19900 ft 384 kts 160°
2026-05-04 04:11 9.89890 125.40755 19436 ft 382 kts 160°
2026-05-04 04:12 9.87365 125.41566 18979 ft 380 kts 160°
2026-05-04 04:12 9.84843 125.42375 18513 ft 379 kts 160°
2026-05-04 04:12 9.82334 125.43181 18031 ft 377 kts 160°
2026-05-04 04:12 9.79838 125.43982 17542 ft 375 kts 160°
2026-05-04 04:13 9.77362 125.44779 17097 ft 372 kts 160°
2026-05-04 04:13 9.74933 125.45561 16661 ft 370 kts 160°
2026-05-04 04:13 9.72488 125.46347 16218 ft 367 kts 161°
2026-05-04 04:13 9.69992 125.46874 15783 ft 368 kts 174°
2026-05-04 04:14 9.67437 125.46789 15340 ft 368 kts 187°
2026-05-04 04:14 9.64957 125.46149 14901 ft 367 kts 195°
2026-05-04 04:14 9.62511 125.45403 14458 ft 367 kts 195°
2026-05-04 04:14 9.60072 125.44660 14021 ft 366 kts 195°
2026-05-04 04:15 9.57637 125.43920 13554 ft 364 kts 195°
2026-05-04 04:15 9.55218 125.43186 13093 ft 362 kts 195°
2026-05-04 04:15 9.52813 125.42456 12640 ft 360 kts 195°
2026-05-04 04:15 9.50424 125.41732 12196 ft 357 kts 195°
2026-05-04 04:16 9.48053 125.41012 11749 ft 355 kts 195°
2026-05-04 04:16 9.45694 125.40296 11304 ft 353 kts 195°
2026-05-04 04:16 9.43343 125.39587 10851 ft 351 kts 195°
2026-05-04 04:16 9.40999 125.38881 10401 ft 350 kts 195°
2026-05-04 04:17 9.38679 125.38180 10126 ft 343 kts 195°
2026-05-04 04:17 9.36434 125.37498 10007 ft 330 kts 195°
2026-05-04 04:17 9.34271 125.36840 9888 ft 319 kts 195°
2026-05-04 04:17 9.32211 125.36216 9758 ft 308 kts 195°
2026-05-04 04:18 9.30180 125.35598 9426 ft 301 kts 195°
2026-05-04 04:18 9.28193 125.34993 8706 ft 297 kts 195°
2026-05-04 04:18 9.26226 125.34396 7973 ft 294 kts 195°
2026-05-04 04:18 9.24276 125.33805 7293 ft 290 kts 195°
2026-05-04 04:19 9.22359 125.33221 6754 ft 285 kts 195°
2026-05-04 04:19 9.20466 125.32643 6241 ft 283 kts 195°
2026-05-04 04:19 9.18591 125.32072 5738 ft 280 kts 195°
2026-05-04 04:19 9.16706 125.31500 5280 ft 284 kts 195°
2026-05-04 04:20 9.14820 125.30925 4889 ft 283 kts 195°
2026-05-04 04:20 9.12971 125.30362 4566 ft 278 kts 195°
2026-05-04 04:20 9.11123 125.29800 4005 ft 276 kts 195°
2026-05-04 04:20 9.09297 125.29248 3408 ft 273 kts 194°
2026-05-04 04:21 9.07511 125.28752 3164 ft 255 kts 186°
2026-05-04 04:21 9.05834 125.28854 3072 ft 232 kts 161°
2026-05-04 04:21 9.04464 125.29590 2941 ft 219 kts 138°
2026-05-04 04:21 9.03537 125.30773 2840 ft 214 kts 116°
2026-05-04 04:22 9.02901 125.32081 2750 ft 199 kts 116°
2026-05-04 04:22 9.02316 125.33279 2649 ft 182 kts 116°
2026-05-04 04:22 9.01775 125.34384 2563 ft 170 kts 116°
2026-05-04 04:22 9.01256 125.35446 2483 ft 167 kts 117°
2026-05-04 04:23 9.00739 125.36499 2323 ft 166 kts 116°
2026-05-04 04:23 9.00254 125.37486 2087 ft 156 kts 117°
2026-05-04 04:23 8.99781 125.38450 1945 ft 154 kts 117°
2026-05-04 04:23 8.99331 125.39405 1684 ft 148 kts 116°
2026-05-04 04:24 8.98899 125.40348 1388 ft 143 kts 115°
2026-05-04 04:24 8.98472 125.41233 1167 ft 139 kts 117°
2026-05-04 04:24 8.98006 125.42128 1143 ft 141 kts 119°
2026-05-04 04:24 8.97550 125.42971 936 ft 137 kts 120°
2026-05-04 04:25 8.97128 125.43856 806 ft 145 kts 115°
2026-05-04 04:25 8.96708 125.44757 647 ft 140 kts 117°
2026-05-04 04:25 8.96272 125.45639 428 ft 140 kts 118°
2026-05-04 04:25 8.95816 125.46527 195 ft 149 kts 117°
2026-05-04 04:26 8.95361 125.47453 32 ft 141 kts 116°
2026-05-04 04:26 8.95039 125.48102 24 ft 57 kts 117°
2026-05-04 04:26 8.94957 125.48270 23 ft 0 kts 113°
2026-05-04 04:27 8.94907 125.48282 24 ft 6 kts 238°
2026-05-04 04:27 8.94893 125.48251 26 ft 4 kts 247°
2026-05-04 04:27 8.94895 125.48223 26 ft 7 kts 285°
2026-05-04 04:28 8.94914 125.48181 23 ft 6 kts 298°
2026-05-04 04:28 8.94920 125.48144 24 ft 7 kts 257°
2026-05-04 04:28 8.94901 125.48111 25 ft 4 kts 238°
2026-05-04 04:28 8.94895 125.48102 26 ft 0 kts 239°